Weather History for Wahoo, NE

Change the Weather History Date:

Saturday, June 9, 2012

  Actual Average Record
Temperature  
Mean Temperature 76 °F -  
Max Temperature 91 °F 82 °F 102 °F (1985)
Min Temperature 60 °F 58 °F 45 °F (1980)
Cooling Degree Days 10    
Growing Degree Days 26 (Base 50)    
Moisture  
Dew Point 54 °F    
Average Humidity 45    
Maximum Humidity 73    
Minimum Humidity 25    
Precipitation  
Precipitation 0.00 in - - ()
Sea Level Pressure  
Sea Level Pressure 29.72 in    
Wind  
Wind Speed 13 mph (South)    
Max Wind Speed 26 mph    
Max Gust Speed 33 mph    
Visibility 10 miles    
Events      
Averages and records for this station are not official NWS values.
T = Trace of Precipitation, MM = Missing Value Source: NWS Daily Summary

Daily Weather History Graph

Daily Weather History Graph

Search for Another Location

Airport:

Trip Planner

Search our weather history database for the weather conditions in past years. The results will help you decide how hot, cold, wet, or windy it might be!

Date:

Astronomy

Jun. 09, 2012 Rise Set
Actual Time 5:53 AM CDT 8:58 PM CDT
Civil Twilight 5:19 AM CDT 9:32 PM CDT
Nautical Twilight 4:36 AM CDT 10:15 PM CDT
Astronomical Twilight 3:46 AM CDT 11:05 PM CDT
Moon 12:19 AM CDT (6/9) 11:42 AM CDT (6/9)
Length of Visible Light 16h 12m
Length of Day
15h 05m
Waning Gibbous, 68% of the Moon is Illuminated
Jun 9
Waning Gibbous
Jun 11
Last Quarter
Jun 19
New
Jun 26
First Quarter
Jul 3
Full

Hourly Weather History & Observations

Time (CDT) Temp. Heat Index Dew Point Humidity Pressure Visibility Wind Dir Wind Speed Gust Speed Precip Events Conditions
12:15 AM 70.9 °F - 51.1 °F 49% 29.84 in 10.0 mi South 10.4 mph - N/A   Clear
12:35 AM 70.5 °F - 51.1 °F 50% 29.84 in 10.0 mi South 10.4 mph - N/A   Clear
12:55 AM 69.8 °F - 51.1 °F 51% 29.83 in 10.0 mi South 10.4 mph - N/A   Clear
1:15 AM 68.9 °F - 51.3 °F 53% 29.83 in 10.0 mi SSE 10.4 mph - N/A   Clear
1:35 AM 68.9 °F - 51.1 °F 53% 29.83 in 10.0 mi South 10.4 mph - N/A   Clear
1:55 AM 68.9 °F - 51.1 °F 53% 29.82 in 10.0 mi South 12.7 mph - N/A   Clear
2:15 AM 68.4 °F - 51.1 °F 54% 29.81 in 10.0 mi South 12.7 mph - N/A   Clear
2:35 AM 67.3 °F - 51.3 °F 56% 29.81 in 10.0 mi South 11.5 mph - N/A   Clear
2:55 AM 66.7 °F - 51.8 °F 59% 29.81 in 10.0 mi South 9.2 mph - N/A   Clear
3:15 AM 65.3 °F - 51.8 °F 62% 29.81 in 10.0 mi South 9.2 mph - N/A   Clear
3:35 AM 64.6 °F - 51.8 °F 63% 29.81 in 10.0 mi South 8.1 mph - N/A   Clear
3:55 AM 63.7 °F - 52.0 °F 66% 29.81 in 10.0 mi South 8.1 mph - N/A   Clear
4:15 AM 63.1 °F - 52.0 °F 67% 29.81 in 10.0 mi South 6.9 mph - N/A   Clear
4:35 AM 62.2 °F - 52.0 °F 69% 29.81 in 10.0 mi South 6.9 mph - N/A   Clear
4:55 AM 61.7 °F - 52.0 °F 70% 29.81 in 10.0 mi South 6.9 mph - N/A   Clear
5:15 AM 60.6 °F - 51.8 °F 73% 29.81 in 10.0 mi South 8.1 mph - N/A   Clear
5:35 AM 61.0 °F - 51.8 °F 72% 29.81 in 10.0 mi South 6.9 mph - N/A   Clear
5:55 AM 61.0 °F - 51.4 °F 71% 29.80 in 10.0 mi South 5.8 mph - N/A   Clear
6:15 AM 61.7 °F - 51.4 °F 69% 29.80 in 10.0 mi SSE 5.8 mph - N/A   Clear
6:35 AM 62.1 °F - 52.0 °F 70% 29.80 in 10.0 mi SSE 6.9 mph - N/A   Clear
6:55 AM 63.5 °F - 52.7 °F 68% 29.80 in 10.0 mi SSE 6.9 mph - N/A   Clear
7:15 AM 65.3 °F - 53.1 °F 65% 29.79 in 10.0 mi SSE 9.2 mph - N/A   Clear
7:35 AM 68.0 °F - 53.4 °F 60% 29.79 in 10.0 mi South 13.8 mph 18.4 mph N/A   Clear
7:55 AM 69.6 °F - 54.1 °F 58% 29.79 in 10.0 mi South 11.5 mph - N/A   Clear
8:15 AM 71.8 °F - 54.9 °F 55% 29.79 in 10.0 mi South 12.7 mph 17.3 mph N/A   Clear
8:35 AM 73.4 °F - 55.0 °F 52% 29.79 in 10.0 mi South 16.1 mph 20.7 mph N/A   Clear
8:55 AM 73.9 °F - 55.2 °F 52% 29.79 in 10.0 mi South 18.4 mph - N/A   Clear
9:15 AM 75.4 °F - 56.1 °F 51% 29.77 in 10.0 mi South 17.3 mph - N/A   Clear
9:35 AM 77.2 °F - 56.8 °F 49% 29.77 in 10.0 mi South 16.1 mph 21.9 mph N/A   Clear
9:55 AM 78.8 °F - 57.2 °F 47% 29.76 in 10.0 mi South 17.3 mph 21.9 mph N/A   Clear
10:15 AM 80.1 °F 80.4 °F 56.8 °F 45% 29.75 in 10.0 mi South 16.1 mph 27.6 mph N/A   Clear
10:35 AM 80.8 °F 80.9 °F 57.2 °F 44% 29.74 in 10.0 mi South 20.7 mph 27.6 mph N/A   Clear
10:55 AM 82.2 °F 82.0 °F 57.6 °F 43% 29.73 in 10.0 mi South 18.4 mph 23.0 mph N/A   Clear
11:15 AM 82.9 °F 82.6 °F 57.4 °F 42% 29.73 in 10.0 mi South 17.3 mph 27.6 mph N/A   Clear
11:35 AM 83.7 °F 82.8 °F 56.3 °F 39% 29.72 in 10.0 mi SSW 23.0 mph 28.8 mph N/A   Clear
11:55 AM 84.7 °F 83.7 °F 56.5 °F 38% 29.72 in 10.0 mi South 18.4 mph 26.5 mph N/A   Clear
12:15 PM 85.8 °F 84.7 °F 56.5 °F 37% 29.71 in 10.0 mi South 17.3 mph 21.9 mph N/A   Clear
12:35 PM 86.0 °F 84.7 °F 56.1 °F 36% 29.71 in 10.0 mi South 17.3 mph 26.5 mph N/A   Clear
12:55 PM 86.7 °F 85.3 °F 56.1 °F 35% 29.70 in 10.0 mi South 20.7 mph 27.6 mph N/A   Clear
1:15 PM 87.3 °F 85.3 °F 54.1 °F 32% 29.69 in 10.0 mi South 23.0 mph 29.9 mph N/A   Clear
1:35 PM 88.2 °F - 52.9 °F 30% 29.68 in 10.0 mi South 17.3 mph 28.8 mph N/A   Clear
1:55 PM 88.9 °F - 52.0 °F 28% 29.67 in 10.0 mi SSE 18.4 mph 29.9 mph N/A   Clear
2:35 PM 90.1 °F - 51.3 °F 26% 29.65 in 10.0 mi SSE 20.7 mph 33.4 mph N/A   Clear
2:55 PM 90.7 °F - 50.5 °F 25% 29.64 in 10.0 mi SSE 24.2 mph 31.1 mph N/A   Clear
3:15 PM 90.7 °F - 50.5 °F 25% 29.64 in 10.0 mi SSE 23.0 mph 32.2 mph N/A   Clear
3:35 PM 91.4 °F - 50.9 °F 25% 29.63 in 10.0 mi South 25.3 mph 32.2 mph N/A   Clear
3:55 PM 91.4 °F - 51.1 °F 25% 29.63 in 10.0 mi South 25.3 mph 31.1 mph N/A   Clear
4:15 PM 91.4 °F - 51.1 °F 25% 29.62 in 10.0 mi South 21.9 mph 32.2 mph N/A   Clear
4:35 PM 91.0 °F - 52.0 °F 26% 29.62 in 10.0 mi South 21.9 mph 33.4 mph N/A   Clear
4:55 PM 91.4 °F 89.1 °F 54.1 °F 28% 29.61 in 10.0 mi SSE 15.0 mph 31.1 mph N/A   Clear
5:15 PM 90.9 °F 88.5 °F 53.2 °F 28% 29.61 in 10.0 mi SSE 21.9 mph 33.4 mph N/A   Clear
5:35 PM 91.0 °F - 52.7 °F 27% 29.61 in 10.0 mi SSE 17.3 mph 31.1 mph N/A   Clear
5:55 PM 90.5 °F 88.1 °F 53.1 °F 28% 29.61 in 10.0 mi SSE 24.2 mph 32.2 mph N/A   Clear
6:15 PM 90.5 °F 88.1 °F 53.2 °F 28% 29.61 in 10.0 mi SSE 26.5 mph 29.9 mph N/A   Clear
6:35 PM 90.1 °F 87.7 °F 53.1 °F 28% 29.62 in 10.0 mi SSE 21.9 mph 28.8 mph N/A   Clear
6:55 PM 89.6 °F - 52.5 °F 28% 29.61 in 10.0 mi South 24.2 mph 28.8 mph N/A   Clear
7:15 PM 88.7 °F - 52.5 °F 29% 29.61 in 10.0 mi South 25.3 mph 29.9 mph N/A   Clear
7:35 PM 88.0 °F 85.7 °F 53.1 °F 30% 29.62 in 10.0 mi SSE 17.3 mph 26.5 mph N/A   Clear
7:55 PM 87.3 °F 85.3 °F 53.6 °F 32% 29.62 in 10.0 mi SSE 17.3 mph 27.6 mph N/A   Clear
8:15 PM 86.0 °F 84.2 °F 53.8 °F 33% 29.63 in 10.0 mi SSE 13.8 mph 24.2 mph N/A   Clear
8:35 PM 85.1 °F 83.6 °F 54.5 °F 35% 29.63 in 10.0 mi SSE 16.1 mph 21.9 mph N/A   Clear
8:55 PM 84.4 °F 83.1 °F 54.7 °F 36% 29.63 in 10.0 mi SSE 15.0 mph 23.0 mph N/A   Clear
9:15 PM 83.3 °F 82.3 °F 55.4 °F 38% 29.64 in 10.0 mi SSE 16.1 mph - N/A   Clear
9:35 PM 82.9 °F 82.1 °F 55.9 °F 39% 29.64 in 10.0 mi SSE 15.0 mph 20.7 mph N/A   Clear
9:55 PM 81.9 °F 81.6 °F 56.5 °F 42% 29.65 in 10.0 mi SSE 13.8 mph - N/A   Clear
10:15 PM 81.5 °F 81.4 °F 57.2 °F 43% 29.65 in 10.0 mi SSE 12.7 mph 19.6 mph N/A   Clear
10:35 PM 80.6 °F 80.9 °F 58.1 °F 46% 29.66 in 10.0 mi SSE 13.8 mph 18.4 mph N/A   Clear
10:55 PM 80.1 °F 80.7 °F 59.0 °F 48% 29.66 in 10.0 mi SSE 16.1 mph 21.9 mph N/A   Clear
11:15 PM 80.1 °F 80.9 °F 59.9 °F 50% 29.66 in 10.0 mi SSE 16.1 mph 21.9 mph N/A   Clear
11:55 PM 79.7 °F - 60.1 °F 51% 29.66 in 10.0 mi SSE 15.0 mph 20.7 mph N/A   Clear